Location: Wavehorne
(51.0500°N, 0.8333°E)
Time: 20:43:59
(UTC+00:00)

USA 308 - Pass Details

Date: 20 June 2021
Orbit: 566 x 576 km, 54.0° (Epoch: 13 July)

Event Time Altitude Azimuth Distance (km) Brightness Sun altitude
Exits shadow 02:28:03 11° 229° (SW) 1,828 4.8 -8.5°
Maximum altitude 02:32:08 60° 150° (SSE) 654 3.1 -8.2°
Drops below altitude 10° 02:36:19 10° 71° (ENE) 1,867 6.5 -7.8°
Sets 02:38:35 0° 67° (ENE) 2,767 7.5 -7.6°
